Santa Ana, CA

7:56 PM PST on December 15, 2017 (GMT -0800)
John Wayne-Orange County

Weather History for KSNA - April, 2012

Change the Weather History Date:

Tuesday, April 24, 2012

  Actual Average Record
Temperature  
Mean Temperature 63 °F 62 °F  
Max Temperature 71 °F 70 °F 91 °F (2001)
Min Temperature 55 °F 55 °F 51 °F (2006)
Degree Days  
Heating Degree Days 2 3  
Month to date heating degree days 91 103  
Since 1 July heating degree days 1081 1190  
Cooling Degree Days 0 1  
Month to date cooling degree days 3 6  
Year to date cooling degree days 26 21  
Growing Degree Days 13 (Base 50)    
Moisture  
Dew Point 51 °F    
Average Humidity 68    
Maximum Humidity 86    
Minimum Humidity 49    
Precipitation  
Precipitation 0.00 in 0.04 in 0.31 in (2005)
Month to date precipitation 0.81 0.72  
Year to date precipitation 3.61 8.48  
Since 1 July precipitation 6.06  
Snow  
Snow 0.00 in - - ()
Month to date snowfall 0.0  
Year to date snowfall 0.0  
Snow Depth 0.00 in    
Sea Level Pressure  
Sea Level Pressure 30.03 in    
Wind  
Wind Speed 4 mph (West)    
Max Wind Speed 13 mph    
Max Gust Speed 18 mph    
Visibility 10 miles    
Events      
T = Trace of Precipitation, MM = Missing Value Source: NWS Daily Summary

Daily Weather History Graph

Daily Weather History Graph

Search for Another Location

Airport or City:

Trip Planner

Search our weather history database for the weather conditions in past years. The results will help you decide how hot, cold, wet, or windy it might be!

Date:

Astronomy

Apr. 24, 2012 Rise Set
Actual Time 6:09 AM PDT 7:29 PM PDT
Civil Twilight 5:43 AM PDT 7:56 PM PDT
Nautical Twilight 5:12 AM PDT 8:27 PM PDT
Astronomical Twilight 4:39 AM PDT 8:59 PM PDT
Moon 8:16 AM PDT (4/24) 10:46 PM PDT (4/24)
Length of Visible Light 14h 12m
Length of Day
13h 20m
Waxing Crescent, 11% of the Moon is Illuminated
Apr 24
Waxing Crescent
Apr 29
First Quarter
May 5
Full
May 12
Last Quarter
May 20
New

Hourly Weather History & Observations

Time (PDT) Temp. Dew Point Humidity Pressure Visibility Wind Dir Wind Speed Gust Speed Precip Events Conditions
12:53 AM 60.1 °F 52.0 °F 75% 30.06 in 10.0 mi Calm Calm - N/A   Overcast
2:53 AM 57.9 °F 53.1 °F 84% 30.06 in 10.0 mi Calm Calm - N/A   Partly Cloudy
3:53 AM 57.0 °F 52.0 °F 83% 30.05 in 10.0 mi Calm Calm - N/A   Partly Cloudy
4:53 AM 55.9 °F 51.1 °F 84% 30.03 in 10.0 mi Calm Calm - N/A   Clear
5:53 AM 55.9 °F 50.0 °F 80% 30.04 in 10.0 mi Calm Calm - N/A   Clear
5:58 AM 55.4 °F 50.0 °F 82% 30.04 in 10.0 mi Calm Calm - N/A   Scattered Clouds
6:53 AM 57.9 °F 51.1 °F 78% 30.07 in 10.0 mi North 4.6 mph - N/A   Scattered Clouds
7:53 AM 59.0 °F 52.0 °F 78% 30.07 in 10.0 mi Calm Calm - N/A   Scattered Clouds
8:53 AM 63.0 °F 51.1 °F 65% 30.07 in 10.0 mi Calm Calm - N/A   Mostly Cloudy
9:12 AM 62.6 °F 48.2 °F 59% 30.06 in 10.0 mi Calm Calm - N/A   Mostly Cloudy
9:53 AM 64.9 °F 48.9 °F 56% 30.04 in 10.0 mi North 5.8 mph - N/A   Mostly Cloudy
10:53 AM 66.9 °F 51.1 °F 57% 30.03 in 10.0 mi Variable 4.6 mph - N/A   Mostly Cloudy
11:53 AM 70.0 °F 51.1 °F 51% 30.01 in 10.0 mi Variable 3.5 mph - N/A   Mostly Cloudy
12:53 PM 71.1 °F 51.1 °F 49% 30.03 in 10.0 mi SW 9.2 mph - N/A   Mostly Cloudy
1:53 PM 69.1 °F 50.0 °F 51% 30.02 in 10.0 mi WSW 9.2 mph - N/A   Mostly Cloudy
2:53 PM 68.0 °F 50.0 °F 52% 30.00 in 10.0 mi SW 9.2 mph - N/A   Mostly Cloudy
3:53 PM 69.1 °F 50.0 °F 51% 29.97 in 10.0 mi WSW 6.9 mph - N/A   Mostly Cloudy
4:53 PM 68.0 °F 50.0 °F 52% 29.96 in 10.0 mi West 6.9 mph - N/A   Mostly Cloudy
5:53 PM 66.0 °F 48.9 °F 54% 29.96 in 10.0 mi SW 3.5 mph - N/A   Overcast
6:53 PM 66.0 °F 52.0 °F 60% 29.98 in 10.0 mi SW 4.6 mph - N/A   Overcast
7:53 PM 63.0 °F 51.1 °F 65% 30.01 in 10.0 mi WSW 6.9 mph - N/A   Overcast
8:53 PM 62.1 °F 51.1 °F 67% 30.04 in 10.0 mi NW 5.8 mph - N/A   Overcast
9:53 PM 63.0 °F 50.0 °F 63% 30.06 in 10.0 mi NNW 5.8 mph - N/A   Mostly Cloudy
10:53 PM 62.1 °F 50.0 °F 65% 30.03 in 10.0 mi NNW 3.5 mph - N/A   Mostly Cloudy
11:53 PM 61.0 °F 51.1 °F 70% 30.03 in 10.0 mi Calm Calm - N/A   Clear